Regional Weather Roundup
Issued by NWS Sioux Falls, SD

Home | Current Version | Previous Version | Text Only | Print | Product List | Glossary Off
Versions: 1 2 3 4 5 6 7 8 9 10 11 12 13 14 15 16 17 18 19 20 21 22 23 24 25 26 27 28 29 30 31 32 33 34 35 36 37 38 39 40 41 42 43 44 45 46 47 48 49 50

022
ASUS43 KFSD 260410
RWRFSD

WEATHER ROUNDUP FOR SE SOUTH DAKOTA/SW MINNESOTA/NW IOWA
NATIONAL WEATHER SERVICE SIOUX FALLS SD
1100 PM CDT MON JUL 25 2016

NOTE: "FAIR" INDICATES FEW OR NO CLOUDS BELOW 12,000 FEET WITH NO
SIGNIFICANT WEATHER AND OR OBSTRUCTIONS TO VISIBILITY.


SDZ038>040-050-052>070-260500-
SOUTHEAST SOUTH DAKOTA

CITY           SKY/WX    TMP DP  RH WIND       PRES   REMARKS
BROOKINGS      CLEAR     72  65  78 S8        30.07R
CHAMBERLAIN    CLOUDY    71  58  64 SE7       30.04R
HURON          CLOUDY    78  57  48 S12       30.01R
MADISON        FAIR      68  68 100 S8        30.08R
MITCHELL       CLEAR     78  61  55 S8        30.05R
SIOUX FALLS    PTCLDY    74  63  68 S9        30.07R
WINNER         FAIR      78  53  41 S10       30.05R
YANKTON        CLEAR     75  63  64 S6        30.06R
$$

MNZ071-072-080-081-089-090-097-098-260500-
SOUTHWEST MINNESOTA

CITY           SKY/WX    TMP DP  RH WIND       PRES   REMARKS
FAIRMONT       CLEAR     72  64  78 SE3       30.07R
JACKSON        CLEAR     72  64  78 S5        30.10R
LUVERNE        CLEAR     68  63  83 CALM      30.09R
MARSHALL       CLEAR     72  66  81 S6        30.05S
MONTEVIDEO     CLEAR     73  66  78 SW6       30.04S
REDWOOD FALLS  CLEAR     73  65  75 S7        30.04R
TRACY          CLEAR     74  67  77 S7        30.07R
WINDOM         CLEAR     70  66  88 CALM      30.08S
WORTHINGTON    CLEAR     71  65  81 S7        30.10R
$$

IAZ001>003-012>014-020>022-031-032-NEZ013-014-SDZ071-260500-
NORTHWEST IOWA

CITY           SKY/WX    TMP DP  RH WIND       PRES   REMARKS
CHEROKEE       CLEAR     69  67  94 CALM      30.09S
DENISON        CLEAR     68  66  94 E5        30.08S
ESTHERVILLE    CLEAR     69  66  90 S6        30.09R
LE MARS        CLEAR     72  66  83 CALM      30.09R
SHELDON        CLEAR     70  68  94 CALM      30.08R
SIOUX CITY     CLEAR     73  66  78 SE5       30.08R
SPENCER        CLEAR     68  66  93 S5        30.09R
STORM LAKE     CLEAR     70  66  88 S6        30.11R
$$

ABBREVIATIONS USED IN REMARKS
   TC - TEMPERATURE IN CELSIUS
  WCI - WIND CHILL INDEX
   HX - HEAT INDEX
  VSB - VISIBILITY





USA.gov is the U.S. government's official web portal to all federal, state and local government web resources and services.